Flag for Germany Weather past 2 weeks in Rostock, Mecklenburg-Western Pomerania, Germany

Now
61 °F

Overcast.


Feels Like: 61 °F
Forecast: 48 / 58 °F
Wind: 3 mph from South

Location: Rostock-Warnemuende

Current Time: May 29, 2015 at 2:47:12 PM

Latest Report: May 29, 2015 at 2:00 PM


Visibility: 25 mi

Pressure: 29.84 "Hg

Humidity: 44%

Dew point: 39 °F

Location of RostockLocation

Historic Weather in Rostock — Graph

°F

Rostock temperature yesterday

Maximum temperature yesterday: 63 °F (at 1:00 PM)
Minimum temperature yesterday: 49 °F (at 2:00 AM)
Average temperature yesterday: 54 °F

Past Weeks' High & Low Weather Summary

 TemperatureHumidityPressure
High63 °F (May 22, 8:00 PM)95% (May 23, 8:00 AM)30.29 "Hg (May 23, 8:00 AM)
Low43 °F (May 29, 5:00 AM)42% (May 20, 2:00 PM)29.56 "Hg (May 19, 5:00 AM)
Average52 °F74%29.99 "Hg
* Reported May 14 2:00 PM — May 29 2:00 PM, Rostock, Weather by CustomWeather, © 2015

Note: Actual official high and low records may vary slightly from our data, if they occured in-between our weather recording intervals... More about our weather records

Advertising

Rostock weather history for previous 24 hours

 ConditionsComfort  
Time TempWeatherWind HumidityBarometerVisibility
2:00 PM
Fri, May 29
61 °FOvercast.3 mph44%29.84 "Hg25 mi
1:00 PM60 °FOvercast.6 mph45%29.86 "Hg25 mi
12:00 PM58 °FOvercast.5 mph51%29.87 "Hg28 mi
11:00 AM56 °FOvercast.3 mph55%29.88 "Hg25 mi
10:00 AM55 °FScattered clouds.5 mph56%29.88 "Hg25 mi
9:00 AM53 °FPassing clouds.5 mph68%29.89 "Hg25 mi
8:00 AM49 °FPassing clouds.3 mph78%29.89 "Hg25 mi
7:00 AM46 °FPassing clouds.3 mph87%29.89 "Hg25 mi
6:00 AM43 °FPassing clouds.5 mph92%29.89 "Hg25 mi
5:00 AM43 °FPassing clouds.5 mph93%29.88 "Hg25 mi
4:00 AM44 °FClear.5 mph92%29.88 "Hg25 mi
3:00 AM45 °FClear.5 mph91%29.89 "Hg25 mi
2:00 AM47 °FClear.5 mph87%29.88 "Hg25 mi
1:00 AM46 °FClear.5 mph89%29.87 "Hg25 mi
11:00 PM
Thu, May 28
51 °FPassing clouds.5 mph75%29.86 "Hg25 mi
10:00 PM50 °FPassing clouds.3 mph93%29.85 "Hg25 mi
9:00 PM52 °FScattered clouds.3 mph88%29.83 "Hg25 mi
8:00 PM53 °FPartly sunny.5 mph86%29.83 "Hg25 mi
7:00 PM52 °FLight rain. Overcast.5 mph90%29.83 "Hg12 mi
6:00 PM52 °FLight rain. Overcast.5 mph88%29.83 "Hg5 mi
5:00 PM52 °FSprinkles. Overcast.10 mph89%29.84 "Hg2 mi
4:00 PM60 °FOvercast.5 mph64%29.80 "Hg28 mi
3:00 PM60 °FOvercast.7 mph64%29.80 "Hg12 mi
2:00 PM62 °FOvercast.7 mph54%29.80 "Hg12 mi
Weather by CustomWeather, © 2015

See weather overviewHow to use our weather pages